Wind_Speed
27 25 24 23 26 30 29 29 26 24 22 18 13 12 14 16 17 19 19 19 18 18 17 17 16 16 16 16 16 17 18 20 21 19 18 16 15 13 12 12 11 10 9 9 9 9 9 9 9 8 7 7 7 7 7 7 7 6 6 7 7 7 8 10 10 9 9 9 9 8 7 6 6 6 5 4 4 5 5 5 4 3 5 6 6
26 26 26 24 25 27 29 29 25 23 20 17 15 13 14 16 16 18 19 18 18 18 18 17 16 16 15 15 17 19 19 19 19 18 16 16 15 14 13 12 11 11 10 10 10 9 9 9 9 8 7 6 6 6 6 6 6 6 7 7 8 8 7 9 10 9 8 8 9 8 6 5 4 4 4 4 4 5 4 4 3 2 4 6 6
27 27 28 26 24 26 27 26 22 19 17 14 14 14 15 17 17 18 19 20 20 20 20 19 16 15 14 14 17 19 18 17 17 16 15 15 15 14 13 12 11 10 10 10 10 10 9 9 8 8 7 6 6 6 6 6 7 7 7 7 8 8 8 8 9 8 7 7 7 6 5 5 4 3 4 4 3 4 4 4 3 2 4 6 7
30 27 29 29 25 26 25 23 20 16 14 13 13 14 15 17 18 19 20 21 21 21 22 19 16 16 16 15 17 19 19 18 16 15 15 14 14 13 12 11 11 11 10 11 11 11 10 9 9 8 7 7 6 6 5 6 6 7 8 7 7 8 8 8 9 8 7 7 6 4 5 5 4 4 5 6 4 2 3 4 4 4 6 6 7
27 24 26 27 24 24 23 22 20 16 13 13 13 14 16 17 19 20 21 21 22 23 23 20 18 19 19 19 19 20 21 19 17 15 14 14 13 13 12 12 12 11 11 11 12 11 10 9 9 8 7 7 6 5 5 6 6 7 7 7 7 7 6 6 8 8 7 8 7 5 5 5 5 6 7 8 6 4 4 5 4 5 6 7 7
23 20 20 21 21 22 22 20 19 16 13 12 13 14 17 18 19 20 21 22 23 24 23 20 19 20 20 20 20 22 23 19 15 13 13 13 13 13 12 12 11 11 11 11 11 10 9 8 8 8 7 7 6 6 6 7 7 7 7 7 7 7 6 5 7 7 8 9 8 6 4 4 5 7 7 7 8 8 7 6 6 7 6 6 8
21 18 14 17 20 21 21 19 18 16 14 12 12 14 17 18 20 21 22 23 24 23 22 20 19 17 17 17 18 21 21 18 14 12 12 13 13 13 12 11 11 10 10 10 10 10 9 8 7 7 7 6 6 6 6 7 7 6 6 6 7 7 7 6 6 7 7 8 9 7 5 3 2 4 7 9 11 10 6 7 8 9 8 8 9
17 17 15 17 20 20 19 19 18 16 15 13 12 14 16 17 20 22 23 23 24 23 21 20 17 17 16 16 17 18 18 16 14 13 13 13 13 13 12 11 11 10 10 10 10 9 8 8 7 7 6 6 6 6 6 6 6 6 5 5 6 7 6 6 6 7 7 7 8 8 6 4 1 2 6 9 13 12 9 11 11 9 9 9 10
11 15 17 17 17 17 18 18 17 17 17 14 13 14 14 16 17 19 22 23 24 22 21 19 17 16 17 16 17 18 17 15 14 14 14 13 13 13 12 11 11 11 11 10 10 9 8 8 7 7 6 6 6 6 5 6 6 6 5 5 5 5 5 6 6 7 7 7 8 9 8 6 4 4 7 7 10 12 13 14 12 9 9 10 10
11 13 13 12 13 14 15 15 15 18 16 13 14 13 13 14 15 18 21 22 22 21 20 19 18 17 17 17 17 18 16 14 14 14 14 13 13 13 12 12 11 11 10 10 10 9 8 8 8 7 7 7 7 6 6 6 5 5 5 5 4 5 5 5 5 6 7 7 8 9 9 7 5 5 7 8 8 10 13 14 11 9 10 11 11
10 6 6 6 6 6 7 9 12 14 12 14 15 15 14 14 15 18 20 21 21 20 21 20 19 17 16 16 16 16 16 14 15 15 14 14 13 13 13 12 11 11 10 9 9 9 9 8 8 8 7 7 7 7 8 7 6 5 5 5 4 4 4 3 3 5 6 8 8 8 7 5 5 5 6 9 9 10 14 14 10 9 10 12 14
13 10 9 5 3 2 4 6 9 11 12 14 15 18 19 15 13 17 20 20 19 18 21 20 17 16 16 16 16 15 13 13 13 14 14 14 14 14 14 13 11 10 10 10 10 9 9 8 7 7 7 8 8 8 9 8 7 6 6 5 4 3 3 2 2 3 4 5 7 7 6 5 4 4 5 8 9 8 12 14 11 9 12 15 15
15 14 10 5 5 8 7 6 9 12 13 13 15 19 19 14 12 17 19 19 17 18 21 20 18 17 16 15 14 13 12 12 12 12 13 14 14 14 13 12 11 11 12 12 12 10 9 8 7 7 7 8 9 9 10 9 7 7 6 6 5 4 4 3 2 2 2 4 5 6 6 5 5 4 4 7 9 9 11 13 11 10 16 19 17
13 14 12 12 9 5 6 7 9 13 13 13 17 18 15 12 12 15 16 16 18 20 21 21 18 17 17 15 14 12 12 12 12 13 14 14 13 12 10 10 11 11 11 12 12 10 9 8 7 6 6 7 10 10 10 9 8 8 8 7 7 6 5 5 4 3 2 2 5 6 7 7 6 4 5 7 8 8 10 14 13 12 14 17 18
10 12 13 14 10 4 6 8 10 13 12 14 18 16 12 12 12 14 16 19 22 22 21 20 17 16 17 16 13 12 12 12 13 13 13 13 11 10 9 10 10 9 9 9 10 9 8 8 6 4 4 8 10 10 9 8 8 8 8 8 7 6 6 6 4 4 3 2 4 7 8 7 6 6 7 7 6 5 8 12 12 14 15 14 15
10 10 11 11 8 5 6 8 10 13 13 15 18 16 12 13 16 17 18 22 24 23 22 20 18 18 18 17 15 14 13 13 13 12 11 11 10 10 9 9 9 8 7 8 9 9 8 7 5 3 4 8 10 9 8 8 7 8 8 8 7 7 7 6 5 4 3 3 4 7 7 7 7 8 8 7 6 6 8 8 8 13 18 18 15
10 9 8 9 9 8 7 7 11 15 16 15 17 18 15 15 18 18 19 23 24 24 23 21 20 19 17 17 18 15 13 12 12 11 12 11 10 10 8 8 8 6 7 10 11 11 10 7 4 3 4 7 8 9 8 7 7 7 8 8 8 8 7 6 4 3 3 3 4 5 6 6 8 9 9 8 8 8 8 7 7 10 14 19 20
9 9 8 7 10 12 11 10 10 13 14 15 17 19 18 16 16 18 20 24 24 23 22 20 20 19 17 18 19 16 14 12 10 11 12 12 11 10 8 7 7 7 9 13 13 12 10 7 4 3 4 6 6 7 7 7 6 6 6 7 7 8 7 5 5 5 4 4 4 5 6 6 7 8 10 11 11 11 9 7 7 7 9 15 21
13 14 12 8 8 10 15 15 10 10 12 14 18 20 20 18 16 17 20 23 23 22 20 19 20 19 17 18 18 16 15 12 10 10 11 11 10 9 8 7 7 9 12 14 14 12 10 7 5 4 5 6 7 7 7 7 6 5 5 6 6 7 6 6 8 7 7 7 7 7 6 6 8 10 14 15 13 12 11 9 8 7 5 9 16
16 15 10 6 4 7 16 18 13 11 10 12 17 18 19 18 15 15 18 21 22 21 20 19 19 19 17 17 17 16 15 13 11 10 10 9 9 9 8 8 8 9 12 14 13 11 9 7 6 6 6 8 8 8 8 8 8 7 6 5 6 7 6 7 9 9 10 10 9 9 9 9 11 14 16 16 14 13 11 10 9 9 8 7 10
16 14 8 6 7 9 14 16 14 14 13 12 14 15 16 14 13 14 17 19 20 20 21 20 19 19 18 17 17 16 15 14 12 10 9 9 9 9 8 8 9 10 10 12 12 11 9 8 8 8 8 9 9 9 10 10 9 8 7 6 6 6 6 7 9 10 10 10 9 9 9 10 12 13 14 14 14 14 12 10 9 9 9 8 8
14 14 11 11 11 10 11 12 11 13 15 14 13 14 15 13 12 14 17 17 18 20 20 20 19 19 18 18 18 16 15 14 13 11 10 9 9 9 8 9 10 10 9 11 12 11 10 9 9 9 10 11 11 11 11 11 9 8 7 7 7 7 6 6 8 9 9 8 8 7 6 8 9 10 10 10 11 11 11 10 8 8 9 9 8
12 13 12 11 9 6 7 10 9 8 13 18 18 14 13 13 14 16 18 18 18 19 19 19 19 19 19 19 18 16 16 15 13 11 10 9 9 9 8 8 9 10 9 10 11 12 11 11 10 11 12 12 12 12 12 12 11 9 9 8 8 7 6 6 7 8 8 7 7 6 5 6 7 8 8 8 7 8 9 9 8 7 8 8 8
10 8 6 6 6 5 5 8 10 10 13 17 18 12 7 9 13 16 18 18 17 16 17 18 18 18 19 19 17 17 17 16 14 12 11 10 10 9 8 8 9 10 10 10 11 13 13 12 11 12 12 13 13 13 12 12 11 10 10 9 8 8 6 6 7 7 7 7 7 6 6 6 7 7 6 6 6 6 7 8 9 9 9 8 8
11 8 6 5 6 7 6 6 7 8 8 6 9 11 10 10 13 16 17 16 16 16 17 18 18 18 18 18 17 18 18 16 15 13 11 11 11 10 8 8 9 10 10 10 12 14 14 12 12 12 13 13 12 11 10 9 9 8 8 8 7 7 6 6 7 7 7 7 7 7 7 7 7 6 6 6 6 7 8 9 10 11 12 11 10
12 10 10 8 7 8 7 5 4 2 1 6 9 13 14 14 15 15 15 15 16 17 17 18 19 19 18 16 18 20 18 16 15 13 12 12 12 11 9 8 10 10 10 10 12 14 14 13 13 13 13 12 10 9 8 7 7 7 7 7 6 5 5 5 5 6 6 6 7 8 9 9 8 8 8 8 7 8 9 10 12 13 14 14 12
13 11 11 11 10 10 8 7 7 6 5 10 14 16 16 16 16 15 14 15 15 16 17 19 20 19 17 16 18 20 19 17 15 13 13 13 12 10 9 8 8 9 9 10 12 15 15 14 14 13 12 11 9 8 8 7 8 8 7 6 6 5 4 4 4 4 3 3 4 5 7 8 9 10 10 10 10 9 10 11 12 13 15 16 16
14 13 12 13 13 12 12 12 11 10 10 12 14 15 15 15 13 13 13 13 12 13 15 16 16 16 15 14 15 17 18 18 15 13 14 13 12 11 9 7 7 6 7 9 11 15 16 15 15 14 12 10 9 9 8 8 8 8 8 7 6 5 4 3 3 2 1 1 1 2 3 4 6 7 8 9 10 10 11 11 11 11 12 14 16
16 16 16 15 14 13 14 14 12 11 12 13 13 12 11 10 10 10 11 9 9 11 12 12 13 13 12 11 11 11 14 18 16 15 15 14 12 11 10 7 6 5 6 8 11 15 17 17 16 15 13 11 10 9 8 8 7 7 7 7 7 6 4 3 2 2 1 1 2 2 2 3 3 4 5 7 8 9 10 11 11 10 10 11 13
18 18 16 15 15 13 13 14 14 13 13 13 13 12 11 11 9 8 10 11 11 12 12 11 12 13 12 11 11 11 13 18 18 16 16 15 13 12 10 9 6 5 5 7 10 13 16 17 16 15 13 12 11 10 9 8 7 6 6 7 8 7 5 3 3 2 2 3 3 4 5 5 5 6 8 9 9 9 10 11 11 11 10 10 11
19 20 17 16 17 16 14 16 16 14 12 12 12 12 12 12 10 8 9 11 11 11 11 10 10 11 12 13 12 12 14 17 19 17 17 17 15 11 10 10 9 7 6 7 9 12 14 16 16 15 14 13 12 11 10 10 9 7 7 6 7 8 7 5 4 3 4 5 6 7 8 7 8 9 10 11 12 12 11 12 12 12 12 12 12
19 20 22 20 18 18 17 17 16 15 15 15 14 14 14 13 11 9 9 9 8 9 8 6 6 8 11 12 12 11 12 13 15 14 13 15 15 10 9 11 11 10 8 8 9 11 13 15 16 15 13 13 13 12 11 11 10 9 8 7 6 7 8 7 6 7 7 8 8 9 10 10 10 11 12 12 13 14 13 13 13 14 14 15 15
18 19 23 22 20 21 20 17 16 17 18 19 17 15 15 14 13 12 10 9 9 9 8 6 4 5 7 11 11 10 9 9 11 11 10 11 12 10 10 11 12 11 10 10 10 11 12 14 15 15 14 14 14 13 12 12 11 10 10 9 9 9 10 10 10 10 11 11 11 11 11 12 12 12 13 14 14 15 15 15 14 15 15 17 17
22 22 24 23 23 25 22 18 19 20 20 20 17 15 14 13 12 12 11 11 11 11 9 8 6 6 6 7 8 7 7 7 9 11 11 12 12 11 11 11 11 12 12 11 11 11 11 12 14 15 15 15 15 15 14 14 13 13 12 12 12 12 13 13 13 13 14 13 13 13 13 13 13 13 13 14 15 16 16 16 16 16 17 17 18
28 27 27 26 26 26 23 20 22 23 22 20 18 15 14 14 13 13 13 13 12 12 11 9 7 6 6 6 7 6 6 7 8 9 11 12 11 11 11 11 11 12 13 13 13 12 12 12 14 15 16 17 17 17 16 16 15 15 15 14 14 14 14 15 15 16 16 16 15 15 15 15 15 14 13 14 15 16 17 17 18 18 18 19 19
30 28 29 31 30 29 26 24 24 24 23 22 21 18 15 14 15 15 15 16 16 15 15 13 10 8 7 6 5 5 5 6 7 9 10 10 10 10 10 10 11 12 13 14 14 13 13 13 14 16 17 18 19 19 18 18 18 18 18 18 17 16 16 16 17 18 18 18 18 18 17 17 16 16 15 14 15 15 16 18 19 19 20 20 19
27 25 26 30 32 31 30 28 27 26 24 24 24 22 18 17 17 15 12 11 11 12 13 12 9 8 8 6 4 3 4 5 6 7 9 9 10 11 11 11 12 12 13 14 15 15 15 15 15 16 17 18 20 20 21 21 21 21 22 22 20 19 18 18 19 20 20 21 21 21 20 19 18 17 16 16 16 16 17 19 19 19 21 21 20
23 20 20 22 25 27 27 27 28 29 26 24 24 22 21 21 22 21 18 15 14 14 13 11 9 7 6 5 4 3 3 4 5 6 7 8 9 10 11 12 12 13 14 15 16 17 18 18 18 18 19 20 20 20 20 21 21 21 22 23 23 22 22 21 21 22 23 23 24 23 22 21 20 18 17 17 17 17 18 19 19 19 21 21 19
18 16 15 17 19 21 22 23 25 25 23 21 20 21 22 23 24 24 24 24 23 21 18 16 14 13 11 10 8 7 5 4 3 2 3 4 5 7 9 11 13 14 15 15 16 18 19 20 20 21 22 21 20 19 20 21 21 21 22 24 25 25 25 24 24 24 24 25 25 24 23 22 21 20 19 19 18 18 19 19 19 18 19 18 17
17 15 15 15 15 16 18 20 22 23 20 16 14 16 20 21 21 22 24 24 23 21 19 18 16 14 13 12 12 11 10 9 9 8 6 4 2 2 3 6 8 11 13 14 14 15 16 16 18 20 20 19 18 19 20 20 20 20 22 23 25 26 27 27 27 26 26 26 26 25 23 22 21 22 21 20 19 19 19 19 18 17 17 17 17
23 20 17 16 15 16 18 19 20 20 19 16 11 11 14 15 14 17 19 19 17 15 14 14 13 13 13 12 12 11 11 11 11 11 9 8 6 5 4 3 2 3 4 6 7 9 10 11 14 15 14 15 16 17 17 18 18 18 19 20 21 23 24 25 25 25 25 24 24 23 23 23 22 23 24 23 20 20 19 18 17 16 16 15 16
24 22 20 19 18 18 19 19 18 16 16 15 12 11 12 10 9 13 15 13 11 10 9 8 8 8 9 9 10 9 9 9 9 9 8 8 7 7 7 6 6 5 5 5 5 5 6 8 10 11 11 11 13 15 15 17 18 18 17 18 18 19 20 20 20 21 22 22 21 20 22 23 21 23 25 24 21 20 20 18 17 16 15 14 15
22 21 19 18 18 17 17 17 16 15 14 13 11 11 10 9 9 11 11 9 8 7 6 6 5 4 4 5 5 5 5 5 4 4 5 5 5 5 5 5 5 5 5 5 5 6 6 7 9 10 10 10 10 11 12 14 15 16 17 17 17 18 19 20 20 20 20 20 20 19 20 20 19 21 24 22 20 21 21 19 18 18 18 17 16
20 20 18 18 18 17 16 15 14 13 12 11 10 10 8 7 9 9 7 6 5 4 4 4 3 3 4 3 3 3 3 3 4 4 5 5 5 6 6 6 6 6 6 7 7 8 8 9 10 11 11 11 12 12 12 13 14 16 17 17 16 17 17 18 18 18 18 18 18 18 17 17 17 18 21 21 21 22 20 17 17 19 19 18 18
18 18 17 17 17 16 15 14 14 13 12 10 10 8 7 6 7 7 6 5 5 4 3 3 3 3 3 3 4 4 5 5 6 6 7 7 8 8 8 9 9 9 9 9 9 9 10 11 12 13 14 14 14 15 15 16 16 17 18 19 19 19 19 18 17 16 16 15 15 15 16 16 15 16 20 22 23 23 19 17 18 20 19 18 18
16 16 16 15 15 15 14 14 14 13 12 10 9 8 6 6 5 5 5 5 5 5 4 4 4 4 4 4 4 5 5 6 7 7 8 9 9 10 10 10 10 10 10 10 10 10 11 12 12 13 14 15 16 16 16 17 17 17 18 19 20 21 22 22 20 18 17 16 15 14 14 15 16 17 20 24 25 24 21 19 20 21 20 18 18
14 14 14 14 14 15 15 14 13 12 11 10 9 8 7 6 6 5 5 4 4 4 4 4 3 3 3 4 4 5 5 6 7 7 8 9 10 11 11 12 12 12 11 11 10 11 11 12 12 14 15 16 16 15 15 16 16 17 17 17 17 17 18 20 21 21 20 19 18 16 15 16 18 20 21 23 25 26 24 23 23 23 22 19 17
13 13 13 13 15 15 14 14 12 11 10 9 8 7 7 6 5 4 4 3 3 3 3 3 3 3 3 3 3 4 4 5 6 7 8 9 9 10 11 13 13 13 13 13 12 12 12 12 12 13 14 15 15 15 15 16 17 16 16 16 15 15 15 16 18 19 21 22 22 21 19 18 19 20 20 22 27 28 25 24 25 25 23 20 18
11 11 11 13 13 13 13 12 11 10 9 9 8 7 7 7 6 5 4 4 4 4 4 4 4 4 4 4 4 5 5 5 6 7 8 9 10 10 11 12 13 14 14 14 13 13 13 13 12 13 14 14 14 14 15 15 15 15 15 15 14 14 14 16 17 18 19 21 23 24 23 22 21 21 19 20 27 29 26 25 26 25 23 20 18
10 10 11 12 12 11 11 10 10 9 9 9 9 8 8 8 7 6 6 5 5 5 4 4 4 4 4 4 4 5 5 5 6 6 7 8 10 12 12 12 12 13 14 14 13 13 13 13 12 11 12 13 13 13 14 14 13 13 13 14 14 12 12 13 15 16 17 18 20 22 25 25 25 23 20 18 20 23 22 21 21 20 19 19 18
9 9 10 10 10 10 10 9 9 9 10 10 9 9 9 9 8 7 6 6 6 5 5 5 4 4 4 4 4 4 5 5 6 6 6 6 6 8 11 12 12 12 13 13 13 13 13 12 10 9 8 9 9 10 11 11 11 10 11 12 13 12 10 10 10 12 13 15 16 18 22 24 26 25 22 19 17 18 20 21 21 19 17 17 17
Wind_Direction
210 205 201 199 205 211 215 217 220 223 229 228 213 197 199 202 199 199 201 199 196 193 195 197 190 185 183 180 176 172 168 169 172 174 178 181 183 185 187 193 200 206 212 210 204 202 203 204 205 209 213 206 194 185 182 184 186 188 193 191 185 189 194 183 175 181 189 187 185 183 184 179 174 176 173 166 164 172 183 178 177 204 211 207 196
211 208 205 202 205 213 219 221 224 230 232 227 212 197 198 203 203 202 199 196 197 198 201 201 193 187 184 178 175 173 168 168 173 176 179 183 185 188 191 198 204 208 210 207 202 203 204 204 205 210 212 209 203 197 196 195 194 193 194 194 188 187 194 189 179 178 184 189 183 174 170 155 144 154 142 134 158 173 176 181 187 206 207 197 184
212 209 206 205 207 212 218 221 225 229 228 222 208 196 196 200 201 204 201 196 195 199 205 204 191 183 181 176 174 174 170 169 173 176 181 185 189 193 197 202 206 206 205 201 199 200 200 200 205 210 208 206 203 203 204 202 197 193 191 193 190 186 189 192 187 182 181 181 177 171 168 154 135 133 130 121 143 176 181 179 169 134 155 175 176
210 208 206 206 207 211 218 221 221 220 213 207 197 193 203 204 199 202 204 198 195 199 204 201 185 176 174 172 171 173 172 169 172 179 183 187 192 197 201 203 203 200 195 194 195 195 193 194 199 201 201 201 196 194 199 200 196 194 191 187 188 192 196 197 193 189 181 172 172 176 178 171 155 145 134 116 113 162 175 159 157 131 126 140 152
208 207 205 205 205 210 216 220 223 219 203 196 192 195 209 210 199 202 205 198 197 200 200 194 183 175 170 168 171 173 174 175 176 180 183 186 191 195 198 196 192 189 188 190 189 187 187 188 189 191 195 196 193 192 193 194 193 194 193 185 183 189 199 208 201 190 179 175 174 171 171 173 171 162 141 123 114 107 119 139 153 137 129 136 140
210 208 202 202 203 208 215 221 225 222 208 196 192 195 208 210 204 208 207 199 200 201 196 190 185 179 173 170 173 174 177 180 180 182 183 185 186 188 188 185 183 181 182 185 184 182 181 180 183 185 188 192 193 195 191 186 188 190 190 187 184 184 193 207 207 198 189 182 173 164 160 154 163 168 151 136 127 115 121 140 133 125 132 147 145
213 210 202 203 207 210 217 223 225 226 218 204 193 194 203 209 208 211 211 205 204 200 192 188 184 181 178 176 178 180 181 182 181 183 184 183 181 181 181 178 178 179 178 181 181 177 174 174 177 176 178 181 178 179 173 167 174 182 185 189 191 195 199 196 199 208 206 194 185 181 176 151 134 167 159 149 139 129 134 141 131 132 141 142 140
207 209 214 216 216 218 220 225 227 228 225 216 205 198 199 209 212 212 213 208 203 197 189 186 182 178 177 179 183 184 183 184 184 182 181 182 180 178 178 177 177 177 175 176 176 174 171 169 171 169 173 177 172 171 165 158 164 175 185 195 199 204 203 191 193 207 214 217 211 208 208 215 270 165 161 159 152 145 144 143 142 146 148 139 132
190 202 217 222 223 223 225 230 230 230 230 222 214 208 204 211 212 212 212 205 199 193 183 179 178 175 174 176 181 182 182 187 188 182 179 181 181 179 179 178 177 175 172 171 172 173 173 170 171 174 179 181 179 182 177 167 167 175 188 203 212 214 208 197 198 204 215 232 235 233 231 235 246 174 160 167 162 153 146 147 150 153 147 138 133
188 203 216 225 232 232 232 234 232 234 230 207 203 214 218 218 215 213 210 201 195 188 176 174 173 172 173 173 179 182 181 185 186 182 181 181 182 181 178 176 176 175 172 171 174 178 178 176 176 179 184 187 190 193 193 189 184 184 190 200 210 214 213 209 209 211 214 225 236 240 237 235 236 196 170 171 168 157 152 152 154 153 144 135 133
168 190 203 212 221 227 236 229 227 233 218 189 191 207 218 223 219 215 210 200 194 184 173 172 170 171 174 172 178 182 179 183 187 184 183 183 184 181 176 176 177 178 177 175 177 179 178 175 176 181 190 196 201 205 203 199 196 192 192 197 206 209 211 214 223 228 221 217 222 226 231 239 239 226 196 182 176 165 161 159 153 150 144 137 133
134 121 109 102 123 202 257 236 221 215 197 187 188 199 216 228 220 212 206 197 192 179 171 171 167 168 170 171 177 180 176 183 193 192 188 186 185 180 176 177 179 181 181 178 176 175 174 176 180 184 191 197 202 204 201 196 189 183 184 188 189 186 186 191 213 233 222 212 209 207 220 227 210 220 216 190 183 176 166 159 152 148 143 136 132
151 140 129 144 205 232 240 226 207 192 186 193 192 199 217 234 224 207 200 191 182 174 174 173 168 164 165 166 171 176 175 177 189 197 195 188 184 182 179 177 179 180 178 175 173 173 173 172 171 171 176 184 188 190 189 185 176 169 164 156 148 142 137 129 128 142 161 183 189 191 199 185 162 187 207 189 186 181 165 153 148 149 144 137 133
173 179 181 183 188 213 214 207 198 181 178 193 197 201 215 233 226 203 193 187 178 174 177 177 173 170 171 170 164 169 178 178 183 193 194 186 182 183 180 174 174 170 167 169 171 172 168 157 151 150 161 170 174 176 177 173 166 158 148 139 131 122 119 119 112 102 105 159 174 175 174 164 158 175 175 172 178 178 169 158 146 140 139 136 136
161 178 171 160 151 149 191 198 188 173 174 188 197 206 217 225 220 198 191 188 178 174 177 177 176 174 175 174 166 168 179 181 183 187 189 185 182 179 172 167 165 154 152 164 172 175 166 151 143 135 154 167 168 169 171 170 163 154 147 138 132 125 122 121 112 95 81 104 164 172 167 162 165 160 144 146 157 170 173 165 155 147 139 135 139
123 135 127 124 130 147 186 188 172 172 180 188 196 207 211 210 206 197 192 187 179 177 177 173 171 170 171 173 173 173 173 175 179 184 191 189 181 172 165 162 158 147 152 166 171 174 165 152 146 131 141 159 166 168 169 171 165 156 153 147 142 139 133 127 122 108 89 94 158 175 172 170 168 153 140 140 144 158 164 159 165 163 150 143 144
111 117 103 99 125 150 180 187 172 178 188 197 200 202 205 208 203 194 187 184 183 181 178 175 173 172 171 174 177 175 171 171 175 183 190 186 173 164 162 160 157 156 165 165 165 166 159 151 150 138 133 149 163 171 174 173 165 158 153 148 148 148 140 135 141 138 116 111 147 174 181 179 169 156 148 141 135 148 154 141 154 171 163 155 151
109 110 95 99 131 149 173 190 192 187 188 201 207 204 207 211 203 192 185 185 187 184 180 181 181 177 172 174 177 175 171 171 174 179 179 173 167 162 161 160 156 159 162 159 159 158 154 152 149 136 138 146 153 162 170 172 167 160 149 143 145 143 138 137 135 128 120 119 135 166 176 172 163 153 144 136 134 144 145 127 130 154 174 170 159
120 114 99 103 130 153 174 185 200 194 183 196 206 205 207 208 203 196 189 186 188 187 184 185 186 184 178 176 177 176 174 174 172 173 168 163 164 162 159 159 155 155 156 156 158 156 154 154 143 130 141 148 145 144 152 157 158 158 150 144 138 131 126 124 117 110 111 115 124 141 145 140 139 140 138 135 139 149 145 123 114 119 142 174 167
129 125 101 94 132 172 180 181 188 192 192 203 206 203 204 207 206 198 191 190 191 191 189 186 187 188 183 179 180 179 177 175 170 168 164 160 162 163 161 161 160 157 156 157 158 156 156 151 137 132 141 149 147 142 144 145 146 151 154 152 140 126 118 114 114 113 113 111 111 118 123 125 129 133 136 138 143 153 151 131 118 114 115 147 168
134 136 115 123 162 186 188 186 192 196 201 210 211 208 208 213 213 200 193 195 196 196 193 189 190 192 190 185 183 181 179 177 172 168 167 165 165 165 162 164 166 162 159 161 163 161 158 148 138 140 144 148 150 148 146 143 143 146 150 153 148 136 124 113 115 118 116 110 104 106 116 124 128 131 134 137 144 154 157 145 130 124 121 128 155
136 144 142 152 176 195 189 187 196 197 199 208 213 213 213 214 209 198 196 196 198 200 196 194 194 194 194 189 184 181 181 180 177 174 175 175 172 169 164 165 168 165 162 164 168 167 159 150 146 147 148 149 149 147 143 137 135 136 138 142 146 141 131 120 118 121 120 113 105 105 118 129 132 135 135 136 144 156 166 167 153 140 133 128 141
127 141 150 159 178 194 176 181 197 201 205 208 204 202 210 214 203 194 195 195 198 203 202 200 200 196 194 191 186 184 182 181 181 180 180 180 177 172 167 166 169 169 167 166 167 167 160 153 151 150 148 147 146 143 137 131 126 124 122 123 129 132 134 134 129 127 128 124 120 122 128 138 143 144 145 147 153 164 180 191 189 174 159 147 147
102 113 127 147 161 154 152 178 193 208 221 215 201 191 191 205 202 196 196 197 199 206 206 204 204 199 193 190 189 186 182 181 183 182 181 182 179 174 169 169 172 172 171 169 166 165 161 156 154 153 149 145 143 139 135 131 127 123 119 116 116 123 135 149 153 149 146 143 145 148 147 149 154 156 161 168 176 187 199 211 217 211 197 184 171
93 93 95 110 135 140 150 166 177 207 236 220 192 192 178 176 193 197 197 197 200 204 204 205 206 200 195 193 190 186 184 183 184 181 180 180 176 170 167 171 174 174 175 174 170 166 162 159 158 155 151 146 143 142 139 137 135 130 127 123 120 123 132 151 167 174 177 174 173 175 173 172 175 179 184 191 199 209 217 223 230 231 222 211 199
100 101 106 110 109 114 128 133 127 168 344 86 138 178 177 171 185 192 191 193 198 199 200 203 204 200 196 194 188 188 189 185 181 179 178 175 170 165 165 170 174 176 180 179 174 169 164 162 162 159 155 152 150 151 152 149 146 140 137 134 131 133 138 150 164 174 185 194 194 195 197 196 199 202 205 209 218 229 237 238 241 244 242 233 223
110 114 118 117 109 104 103 101 108 111 104 120 144 163 167 169 176 177 177 183 188 193 197 199 200 199 197 196 195 196 193 182 178 179 175 169 164 161 161 165 169 175 180 181 177 172 167 166 166 164 164 165 165 166 167 165 158 151 147 146 143 143 149 154 161 165 170 184 197 203 207 208 211 215 218 220 224 231 239 244 247 249 249 245 238
114 118 115 110 105 103 100 97 103 108 113 129 148 159 163 168 171 174 180 184 180 187 199 200 196 193 192 197 209 209 191 178 178 180 174 170 167 164 161 160 158 162 173 179 178 175 172 171 171 172 175 177 178 177 176 177 176 171 169 169 163 159 163 166 170 179 189 199 212 213 216 220 222 224 227 228 226 225 227 232 240 244 243 238 232
102 101 102 104 100 99 101 105 112 117 116 121 134 146 152 157 164 169 174 177 175 183 198 202 195 196 194 199 221 222 190 180 183 182 177 175 175 172 169 163 153 145 160 177 180 179 177 176 178 181 183 186 187 187 184 185 188 190 192 193 190 184 185 191 197 217 249 276 292 286 276 274 273 273 267 254 243 232 225 223 225 233 237 227 213
94 92 96 108 108 102 103 110 118 125 125 121 119 119 122 134 144 147 150 161 172 180 189 194 194 200 204 204 219 224 202 191 188 184 182 181 181 181 182 180 171 151 157 175 182 185 183 182 185 189 191 193 195 196 198 197 197 203 208 209 207 204 203 211 226 237 253 271 289 296 294 291 294 300 298 287 272 256 240 230 224 223 227 221 205
90 93 100 109 110 107 103 102 105 112 121 125 123 119 120 128 133 129 137 151 163 173 184 196 202 206 207 205 209 218 216 204 193 189 186 180 176 178 184 191 189 179 175 181 187 192 192 190 192 196 200 204 205 207 211 214 213 216 224 225 217 212 213 225 243 256 270 281 286 290 290 286 289 296 296 289 279 267 253 241 233 224 220 218 213
79 91 101 104 106 108 102 96 97 101 105 109 113 116 117 118 122 127 133 140 151 162 168 179 199 205 206 207 208 215 224 218 206 199 184 171 173 180 189 197 199 194 192 194 197 202 202 200 200 204 210 215 216 216 221 225 224 221 225 233 234 228 230 238 249 260 271 279 284 285 284 282 285 288 288 284 276 266 255 245 237 230 223 219 217
66 81 98 102 104 106 101 97 102 106 106 105 107 111 110 105 106 114 120 123 133 148 155 154 161 180 196 207 213 218 227 230 225 219 199 186 198 210 206 202 203 203 204 206 208 211 212 210 210 213 218 223 224 227 231 236 237 235 234 237 241 245 249 253 258 263 268 274 278 281 281 282 283 283 281 277 270 260 252 245 238 233 228 225 222
65 71 92 103 104 103 102 102 105 107 107 105 105 107 108 106 104 108 112 113 116 125 133 136 141 144 153 173 186 202 218 220 217 214 203 200 210 213 207 207 209 209 212 215 215 218 220 221 222 223 226 229 232 237 243 246 248 250 249 248 249 253 256 258 261 263 265 269 273 275 277 280 282 280 277 273 266 256 248 242 238 235 233 230 228
74 70 81 93 98 102 106 106 105 107 110 109 107 107 107 108 109 108 109 111 112 114 115 120 134 146 152 161 168 182 200 200 197 200 200 202 206 207 208 214 218 217 219 221 220 221 225 229 232 234 235 236 239 246 250 251 254 257 258 259 258 258 259 261 262 262 262 265 268 270 273 277 279 277 274 271 264 254 244 239 238 238 238 236 232
81 75 76 82 88 93 100 102 100 103 106 106 108 112 112 108 106 105 103 103 106 105 105 110 116 119 129 144 161 183 198 198 195 199 204 208 210 212 217 220 222 222 223 223 223 224 229 234 238 240 240 241 246 251 252 254 259 262 263 264 264 262 261 262 263 262 261 263 265 267 270 274 277 275 272 268 261 251 241 237 237 238 238 236 233
81 76 74 79 83 86 92 97 98 98 99 100 102 107 110 108 105 107 107 108 106 96 91 98 100 92 96 108 124 177 209 216 213 214 220 224 224 228 232 230 227 228 229 231 232 231 232 236 240 244 248 252 255 256 257 259 264 266 264 264 265 264 262 262 264 264 263 263 265 267 269 271 274 274 271 266 258 248 238 234 235 237 237 234 235
87 82 77 78 80 84 88 91 92 92 93 96 99 103 105 102 99 100 102 102 101 93 86 90 94 86 86 96 108 141 193 221 228 230 234 236 235 236 238 237 236 238 240 241 240 239 240 243 248 255 261 262 261 261 261 263 266 267 266 266 267 266 263 261 262 262 262 264 267 269 270 270 271 271 269 263 253 243 237 235 235 236 235 234 236
97 92 84 75 73 79 84 86 85 84 82 86 93 99 102 100 97 97 96 93 91 89 87 88 87 86 87 90 92 97 107 123 143 168 200 221 226 227 230 234 236 240 243 244 244 246 248 250 255 260 262 260 259 260 263 265 267 267 266 266 267 268 266 263 261 260 261 263 266 269 271 271 271 268 264 257 247 238 237 237 236 236 235 233 233
93 91 88 83 78 76 76 75 74 71 68 70 79 89 93 94 95 96 93 89 86 85 86 87 87 86 86 85 83 85 87 88 89 87 85 86 101 155 212 228 233 236 240 243 245 248 252 254 255 256 256 256 259 262 264 267 268 268 266 265 265 266 265 263 261 261 261 262 265 268 270 271 272 271 263 252 242 239 239 236 234 235 236 232 226
85 85 87 87 84 77 73 71 69 67 64 61 60 72 81 84 91 93 88 83 81 82 84 86 88 88 87 85 81 77 73 71 70 68 64 62 62 57 46 27 339 290 271 266 264 262 263 263 262 263 263 261 262 265 264 265 267 268 267 265 263 264 266 266 264 262 263 265 268 269 269 269 271 271 262 247 237 238 239 233 230 230 230 228 223
83 81 79 78 77 73 70 70 70 70 68 60 53 59 68 72 83 86 82 78 76 74 73 72 75 78 79 80 78 74 70 66 61 56 51 48 47 43 37 34 29 20 6 352 337 317 304 293 287 290 290 280 273 272 270 269 270 272 271 267 264 265 269 271 271 268 269 273 275 273 269 267 269 269 261 248 238 234 230 224 221 219 213 213 215
81 74 68 66 66 64 62 62 61 64 66 63 59 60 61 64 72 75 74 72 68 63 56 46 39 38 41 49 53 54 54 50 42 34 26 21 21 19 15 14 13 8 358 349 343 336 328 319 314 314 313 306 298 291 285 280 277 276 274 271 267 267 269 273 276 277 278 278 277 276 271 267 267 264 257 247 237 230 224 218 217 215 209 205 205
75 68 60 55 53 52 52 52 50 49 51 51 52 53 51 55 64 64 62 59 54 49 42 22 5 358 355 352 350 347 342 337 335 333 331 329 325 325 325 324 323 323 322 319 316 314 311 308 307 308 308 310 310 306 302 297 290 284 281 278 274 270 269 270 274 278 281 280 277 275 268 261 259 256 251 244 234 227 223 219 217 215 208 200 197
71 66 58 50 47 45 42 41 40 38 36 35 35 36 33 40 49 47 40 37 31 24 16 357 341 339 336 332 329 323 316 313 310 307 305 303 301 301 301 301 301 301 299 296 295 294 293 293 293 294 295 297 298 299 298 296 294 292 289 285 284 281 278 275 271 271 274 276 276 272 262 254 254 252 246 239 229 222 222 224 219 213 205 198 196
68 64 56 46 42 38 34 32 30 28 27 25 23 21 19 24 29 24 18 17 14 4 352 340 333 329 324 323 321 314 311 310 307 304 302 299 296 294 292 293 293 292 291 290 287 284 283 283 283 284 286 287 288 289 290 291 293 295 294 293 292 290 289 287 283 278 275 274 275 271 259 252 253 253 247 238 225 216 216 217 214 210 205 200 198
65 58 50 39 32 28 26 25 24 23 22 20 15 11 10 13 12 6 3 3 0 354 346 343 338 330 324 319 313 309 308 307 305 303 302 302 302 301 297 293 289 287 285 284 282 280 279 278 278 279 281 282 283 285 287 289 291 294 297 299 299 297 295 295 294 291 285 280 277 274 266 257 255 256 253 240 224 213 211 212 211 209 206 203 201
58 49 39 29 24 23 22 21 21 21 21 19 18 17 18 20 20 16 13 11 9 8 13 19 20 16 5 350 335 325 319 310 304 301 297 295 295 295 295 295 293 291 290 290 291 291 290 289 289 287 285 286 287 288 288 288 289 292 295 296 296 295 295 295 297 297 291 284 278 274 273 274 273 273 266 244 223 213 210 211 211 209 205 202 201
50 40 30 23 19 19 18 17 19 23 25 26 28 31 35 39 41 44 49 53 53 52 50 44 38 29 16 5 355 345 335 327 321 316 309 304 300 298 298 298 298 297 296 297 299 300 299 301 302 300 298 296 295 294 292 291 291 294 294 292 289 287 286 288 291 293 291 286 279 272 270 271 277 286 285 255 228 217 210 207 207 206 203 201 200
38 28 21 17 15 15 15 16 21 27 31 35 39 43 44 43 43 44 46 49 50 50 47 42 34 24 11 2 353 341 335 332 329 325 320 314 309 306 304 302 299 297 296 296 297 297 297 300 303 304 304 302 300 298 295 293 293 292 289 285 283 282 282 284 288 291 290 286 281 275 271 266 265 273 282 268 240 224 215 206 200 197 199 201 199
28 19 13 10 12 14 17 22 28 32 35 36 36 36 36 37 42 46 46 45 46 44 43 43 41 36 32 29 21 8 360 356 350 346 342 335 318 305 300 299 295 290 288 288 289 288 290 296 304 309 306 299 296 295 295 295 294 290 283 279 277 277 279 280 281 285 286 285 282 278 274 269 262 258 261 263 250 230 218 210 200 194 195 196 189
Height
1489 1492 1494 1495 1496 1497 1499 1501 1502 1504 1506 1508 1510 1512 1513 1515 1517 1518 1520 1522 1524 1526 1527 1528 1530 1531 1533 1534 1535 1537 1538 1539 1541 1543 1544 1546 1547 1548 1549 1550 1551 1552 1553 1553 1554 1555 1556 1556 1557 1558 1558 1559 1559 1559 1560 1560 1561 1561 1562 1563 1564 1565 1566 1567 1568 1569 1570 1571 1572 1572 1573 1573 1574 1575 1576 1576 1577 1578 1579 1580 1581 1582 1582 1583 1583
1489 1491 1492 1493 1495 1496 1498 1499 1501 1503 1505 1507 1509 1512 1513 1514 1516 1518 1519 1522 1524 1525 1526 1528 1530 1531 1532 1533 1535 1536 1537 1539 1541 1542 1544 1545 1546 1547 1549 1550 1550 1551 1552 1552 1553 1554 1555 1555 1556 1557 1557 1558 1558 1559 1559 1560 1560 1561 1562 1563 1564 1565 1566 1567 1568 1569 1570 1571 1571 1572 1573 1574 1575 1575 1576 1577 1577 1578 1579 1580 1581 1582 1582 1582 1583
1487 1489 1490 1492 1494 1495 1497 1498 1500 1502 1504 1506 1509 1511 1512 1514 1515 1517 1518 1520 1521 1522 1524 1527 1529 1531 1532 1533 1534 1536 1537 1539 1540 1541 1543 1544 1545 1547 1548 1549 1549 1550 1551 1552 1552 1553 1554 1555 1555 1556 1557 1557 1558 1558 1559 1559 1560 1561 1562 1563 1564 1565 1565 1566 1567 1569 1570 1570 1572 1573 1573 1574 1575 1576 1577 1577 1577 1578 1579 1580 1581 1582 1581 1582 1583
1484 1486 1489 1491 1493 1494 1495 1497 1499 1501 1503 1505 1508 1510 1511 1512 1514 1516 1517 1519 1520 1521 1523 1526 1528 1530 1531 1533 1534 1535 1537 1538 1539 1541 1542 1543 1544 1545 1547 1548 1548 1549 1550 1551 1552 1553 1553 1554 1555 1556 1556 1557 1558 1558 1559 1559 1560 1561 1562 1563 1564 1564 1565 1566 1567 1568 1569 1570 1571 1572 1573 1574 1576 1576 1577 1577 1578 1578 1579 1579 1580 1581 1581 1581 1582
1484 1486 1488 1491 1492 1493 1495 1496 1498 1500 1502 1504 1507 1509 1510 1511 1513 1515 1516 1518 1519 1520 1523 1526 1527 1528 1530 1532 1533 1535 1536 1537 1538 1540 1541 1542 1543 1545 1546 1547 1547 1548 1549 1550 1551 1552 1553 1554 1555 1555 1556 1557 1557 1558 1558 1559 1560 1561 1562 1563 1563 1564 1565 1566 1566 1568 1569 1570 1571 1572 1573 1574 1575 1576 1576 1577 1578 1578 1579 1579 1579 1580 1581 1581 1582
1485 1486 1489 1491 1492 1492 1494 1495 1497 1499 1501 1504 1506 1508 1509 1510 1512 1514 1515 1517 1519 1520 1522 1525 1526 1527 1529 1530 1532 1533 1535 1536 1538 1539 1541 1542 1543 1544 1545 1546 1547 1548 1549 1550 1551 1552 1552 1553 1554 1555 1555 1556 1557 1558 1558 1559 1560 1561 1562 1562 1563 1564 1565 1565 1566 1567 1568 1569 1570 1571 1572 1573 1574 1575 1576 1577 1579 1579 1579 1579 1580 1580 1581 1581 1582
1485 1487 1489 1490 1491 1491 1493 1494 1496 1498 1500 1503 1505 1507 1508 1509 1511 1513 1514 1516 1518 1520 1522 1524 1525 1527 1529 1530 1532 1533 1534 1536 1537 1539 1540 1541 1542 1543 1544 1545 1546 1547 1549 1550 1550 1551 1552 1553 1554 1554 1555 1556 1557 1557 1558 1559 1560 1560 1561 1562 1563 1564 1564 1565 1566 1567 1568 1569 1570 1571 1572 1573 1573 1574 1575 1576 1578 1579 1579 1580 1580 1580 1581 1581 1582
1486 1488 1489 1489 1490 1491 1492 1494 1495 1498 1500 1502 1504 1505 1507 1508 1509 1511 1513 1515 1516 1518 1521 1523 1525 1527 1528 1530 1531 1533 1534 1536 1537 1538 1540 1541 1542 1543 1544 1545 1546 1547 1548 1549 1550 1551 1552 1552 1553 1554 1555 1555 1556 1557 1558 1559 1560 1560 1561 1562 1563 1563 1564 1565 1566 1567 1568 1568 1569 1571 1572 1573 1573 1574 1575 1576 1577 1578 1579 1580 1580 1580 1581 1581 1582
1485 1487 1488 1489 1490 1491 1493 1493 1495 1497 1499 1501 1502 1504 1506 1507 1508 1510 1511 1513 1515 1518 1520 1523 1525 1526 1528 1529 1530 1532 1534 1535 1536 1538 1539 1540 1541 1542 1544 1545 1546 1547 1548 1549 1550 1551 1551 1552 1553 1554 1554 1555 1556 1557 1558 1559 1559 1560 1561 1562 1562 1563 1564 1565 1566 1566 1567 1568 1569 1571 1572 1573 1573 1574 1575 1575 1576 1577 1579 1579 1580 1580 1581 1581 1582
1485 1487 1488 1489 1490 1492 1493 1494 1495 1497 1498 1500 1502 1503 1505 1506 1508 1509 1510 1512 1515 1517 1520 1522 1524 1525 1527 1528 1529 1531 1533 1534 1536 1537 1538 1540 1541 1542 1544 1545 1546 1547 1547 1548 1549 1550 1551 1552 1553 1554 1554 1555 1555 1556 1557 1558 1559 1560 1561 1561 1562 1563 1564 1564 1565 1566 1567 1568 1569 1570 1571 1572 1573 1573 1574 1575 1576 1577 1578 1579 1580 1581 1581 1581 1581
1484 1487 1489 1490 1492 1493 1494 1495 1495 1497 1498 1500 1501 1503 1504 1505 1507 1508 1510 1512 1514 1517 1520 1522 1523 1525 1527 1528 1529 1530 1532 1533 1535 1537 1538 1539 1541 1542 1543 1544 1545 1546 1547 1548 1549 1550 1551 1552 1553 1554 1554 1555 1555 1556 1557 1558 1559 1560 1560 1561 1562 1562 1563 1564 1565 1566 1566 1567 1568 1570 1571 1572 1572 1573 1574 1575 1576 1576 1577 1579 1580 1581 1581 1581 1582
1482 1485 1488 1491 1492 1494 1497 1497 1496 1497 1499 1500 1502 1502 1503 1504 1507 1508 1510 1512 1514 1518 1520 1522 1523 1525 1526 1528 1529 1530 1531 1533 1535 1537 1538 1539 1540 1541 1543 1544 1545 1546 1546 1547 1549 1550 1551 1553 1553 1554 1554 1555 1555 1556 1557 1558 1559 1559 1560 1561 1561 1562 1563 1564 1564 1565 1566 1567 1568 1569 1570 1571 1572 1573 1574 1575 1576 1576 1577 1579 1580 1581 1581 1581 1582
1480 1482 1484 1487 1490 1495 1498 1497 1496 1497 1499 1500 1501 1502 1503 1505 1506 1508 1511 1513 1515 1518 1519 1521 1523 1524 1526 1528 1529 1530 1532 1533 1536 1537 1538 1539 1540 1541 1542 1543 1544 1545 1546 1547 1549 1550 1552 1553 1554 1554 1554 1555 1555 1556 1557 1558 1559 1559 1560 1561 1561 1562 1563 1563 1564 1565 1566 1566 1567 1568 1569 1570 1571 1572 1573 1574 1575 1576 1577 1578 1579 1580 1580 1581 1583
1481 1482 1481 1482 1487 1494 1498 1497 1496 1497 1498 1500 1501 1502 1504 1505 1507 1510 1513 1514 1516 1517 1518 1520 1522 1523 1526 1528 1529 1531 1532 1534 1535 1536 1537 1538 1540 1541 1542 1543 1545 1546 1546 1547 1549 1550 1552 1553 1553 1554 1554 1555 1555 1556 1557 1558 1558 1559 1560 1561 1561 1562 1563 1563 1564 1565 1565 1566 1567 1568 1569 1570 1570 1571 1573 1574 1575 1575 1576 1577 1578 1580 1582 1582 1583
1481 1483 1481 1481 1486 1492 1496 1496 1496 1496 1498 1499 1501 1502 1504 1505 1507 1510 1512 1512 1514 1516 1517 1519 1521 1522 1525 1528 1529 1531 1532 1533 1534 1536 1537 1538 1540 1541 1542 1544 1544 1545 1546 1547 1549 1550 1552 1552 1553 1554 1554 1555 1555 1556 1557 1558 1558 1559 1560 1561 1561 1562 1563 1564 1564 1565 1565 1566 1567 1567 1568 1569 1570 1571 1572 1574 1575 1575 1576 1577 1577 1578 1581 1584 1584
1483 1485 1484 1483 1486 1492 1494 1495 1496 1496 1498 1499 1500 1501 1502 1502 1503 1506 1508 1509 1512 1515 1517 1519 1520 1521 1524 1526 1528 1530 1531 1532 1533 1535 1537 1538 1540 1541 1542 1543 1544 1545 1546 1547 1548 1550 1551 1552 1553 1554 1554 1555 1555 1556 1557 1558 1559 1559 1560 1561 1562 1562 1563 1564 1565 1565 1566 1566 1567 1567 1568 1569 1570 1571 1572 1574 1575 1576 1577 1578 1578 1578 1579 1582 1585
1482 1485 1485 1485 1488 1492 1494 1494 1494 1495 1497 1500 1501 1500 1499 1499 1501 1504 1508 1509 1511 1513 1515 1517 1519 1521 1523 1525 1527 1528 1529 1531 1533 1535 1537 1538 1540 1541 1541 1542 1543 1544 1545 1546 1548 1549 1551 1552 1553 1553 1554 1555 1556 1556 1557 1558 1559 1560 1561 1562 1562 1563 1564 1564 1565 1565 1566 1566 1567 1567 1568 1569 1570 1571 1572 1574 1575 1576 1578 1579 1579 1579 1579 1580 1582
1482 1483 1485 1487 1489 1492 1493 1493 1493 1492 1494 1498 1500 1499 1498 1499 1502 1505 1507 1509 1511 1513 1515 1517 1518 1520 1522 1524 1526 1527 1529 1531 1533 1535 1536 1538 1539 1540 1541 1542 1543 1544 1545 1546 1548 1549 1551 1552 1552 1553 1554 1555 1556 1556 1558 1558 1559 1560 1561 1562 1563 1563 1564 1564 1565 1565 1566 1566 1567 1567 1568 1569 1570 1571 1572 1574 1575 1577 1578 1579 1580 1581 1581 1580 1581
1483 1483 1485 1487 1489 1491 1491 1492 1493 1491 1491 1494 1498 1498 1498 1500 1503 1504 1506 1509 1511 1513 1515 1517 1519 1521 1522 1524 1526 1527 1529 1531 1533 1535 1536 1537 1539 1540 1541 1542 1543 1544 1545 1546 1548 1549 1550 1551 1552 1553 1553 1554 1556 1556 1557 1558 1559 1561 1562 1563 1563 1564 1565 1565 1565 1566 1566 1566 1567 1568 1569 1570 1571 1571 1572 1574 1575 1577 1579 1580 1580 1581 1581 1582 1582
1483 1483 1483 1485 1488 1490 1490 1491 1492 1491 1490 1492 1495 1496 1498 1501 1502 1504 1507 1509 1510 1512 1514 1516 1519 1521 1523 1525 1526 1528 1529 1531 1533 1534 1536 1537 1538 1539 1541 1542 1542 1543 1544 1546 1548 1549 1550 1551 1552 1553 1553 1554 1556 1556 1558 1559 1560 1561 1562 1563 1564 1565 1565 1566 1566 1566 1567 1567 1568 1569 1570 1570 1571 1572 1573 1574 1576 1577 1579 1580 1581 1581 1582 1583 1583
1483 1482 1482 1484 1487 1491 1490 1490 1492 1491 1490 1491 1494 1497 1499 1501 1502 1504 1507 1509 1510 1512 1514 1516 1518 1521 1523 1525 1526 1528 1529 1531 1532 1534 1535 1536 1537 1539 1540 1541 1542 1543 1544 1546 1547 1549 1550 1551 1552 1553 1553 1554 1556 1557 1558 1559 1560 1561 1562 1563 1564 1565 1566 1567 1567 1567 1568 1568 1569 1570 1571 1572 1573 1573 1574 1575 1576 1578 1579 1581 1581 1582 1582 1583 1584
1484 1482 1482 1484 1487 1490 1490 1489 1490 1490 1490 1492 1494 1497 1499 1501 1502 1504 1506 1508 1510 1512 1513 1515 1517 1519 1522 1524 1526 1527 1529 1531 1532 1534 1535 1536 1537 1538 1539 1541 1542 1543 1544 1546 1547 1549 1550 1551 1552 1553 1554 1555 1556 1557 1558 1559 1560 1561 1562 1563 1564 1565 1567 1567 1568 1568 1569 1569 1570 1571 1572 1573 1574 1575 1575 1576 1577 1578 1580 1581 1581 1582 1583 1583 1584
1485 1484 1484 1486 1488 1489 1489 1488 1488 1489 1491 1491 1493 1496 1499 1500 1501 1502 1504 1506 1508 1510 1513 1515 1517 1518 1520 1522 1524 1526 1528 1530 1532 1533 1534 1535 1537 1538 1539 1540 1541 1543 1544 1546 1547 1549 1550 1551 1552 1553 1554 1555 1557 1558 1559 1560 1561 1562 1563 1564 1564 1565 1567 1568 1568 1569 1570 1570 1571 1572 1573 1573 1574 1575 1576 1577 1578 1579 1580 1581 1581 1582 1583 1584 1584
1486 1486 1487 1488 1488 1489 1488 1488 1489 1490 1490 1491 1493 1496 1499 1501 1502 1502 1503 1505 1507 1510 1512 1514 1516 1517 1519 1521 1523 1525 1527 1529 1531 1532 1534 1535 1536 1537 1538 1540 1541 1542 1544 1545 1547 1548 1550 1551 1553 1554 1555 1556 1557 1559 1560 1561 1562 1563 1563 1564 1565 1566 1567 1568 1569 1570 1570 1571 1572 1573 1573 1574 1575 1576 1577 1578 1578 1579 1580 1580 1581 1582 1583 1584 1584
1487 1488 1490 1490 1489 1489 1489 1490 1491 1491 1490 1492 1494 1497 1498 1499 1501 1501 1503 1505 1507 1509 1511 1513 1515 1517 1518 1520 1522 1525 1526 1528 1530 1532 1533 1534 1535 1537 1538 1539 1540 1542 1543 1545 1546 1548 1550 1552 1553 1554 1555 1557 1558 1559 1560 1561 1562 1563 1564 1565 1566 1566 1567 1568 1569 1570 1571 1572 1572 1573 1574 1575 1575 1576 1577 1578 1578 1579 1580 1580 1581 1581 1582 1583 1584
1488 1490 1492 1492 1491 1491 1491 1492 1492 1492 1492 1494 1495 1496 1497 1499 1500 1501 1503 1505 1506 1508 1510 1512 1514 1516 1518 1519 1521 1524 1525 1527 1529 1531 1533 1534 1535 1536 1537 1539 1540 1541 1543 1544 1546 1548 1550 1552 1553 1554 1556 1557 1558 1560 1561 1562 1563 1564 1565 1565 1566 1567 1568 1569 1569 1570 1571 1572 1573 1573 1574 1575 1575 1576 1577 1577 1578 1579 1579 1580 1580 1581 1581 1582 1583
1489 1492 1494 1493 1493 1492 1492 1493 1493 1493 1494 1495 1496 1497 1498 1499 1500 1501 1502 1503 1505 1507 1509 1510 1512 1515 1518 1520 1521 1522 1524 1526 1529 1531 1532 1534 1535 1536 1538 1539 1540 1541 1542 1544 1546 1547 1549 1551 1553 1554 1556 1557 1558 1560 1561 1562 1563 1564 1565 1566 1567 1567 1568 1569 1570 1570 1571 1572 1572 1573 1574 1574 1575 1575 1576 1577 1577 1578 1578 1579 1579 1579 1580 1580 1582
1491 1493 1493 1493 1493 1492 1493 1493 1494 1494 1495 1496 1497 1497 1499 1500 1501 1502 1502 1503 1504 1507 1508 1509 1512 1516 1519 1521 1521 1521 1523 1526 1529 1531 1532 1534 1535 1537 1538 1539 1540 1541 1542 1543 1545 1547 1549 1551 1553 1554 1556 1557 1558 1560 1561 1562 1563 1564 1565 1566 1567 1567 1568 1569 1570 1570 1571 1571 1572 1572 1573 1574 1574 1575 1575 1576 1576 1577 1577 1577 1578 1578 1578 1578 1579
1493 1493 1493 1493 1493 1493 1494 1494 1495 1496 1497 1497 1498 1499 1500 1501 1502 1503 1503 1504 1506 1507 1508 1511 1514 1517 1519 1520 1520 1521 1524 1527 1529 1531 1532 1533 1535 1537 1538 1539 1540 1541 1542 1543 1545 1546 1548 1550 1552 1554 1555 1557 1558 1560 1561 1562 1563 1564 1565 1566 1566 1567 1568 1568 1569 1570 1571 1571 1571 1572 1572 1573 1573 1574 1574 1575 1575 1575 1576 1576 1576 1576 1577 1577 1577
1494 1494 1494 1494 1494 1495 1495 1495 1496 1497 1498 1499 1499 1500 1501 1502 1503 1504 1504 1506 1506 1507 1509 1512 1514 1517 1518 1519 1521 1522 1524 1526 1528 1529 1531 1532 1535 1536 1538 1539 1540 1541 1542 1543 1545 1546 1548 1549 1551 1553 1555 1557 1558 1560 1561 1562 1563 1564 1565 1565 1566 1566 1567 1568 1568 1569 1570 1570 1571 1571 1571 1572 1572 1572 1573 1573 1573 1574 1574 1575 1575 1575 1575 1576 1576
1496 1495 1496 1496 1496 1496 1496 1496 1497 1498 1498 1499 1500 1501 1502 1503 1503 1504 1505 1506 1506 1508 1510 1513 1515 1516 1518 1519 1520 1522 1523 1524 1526 1527 1529 1531 1533 1535 1537 1539 1540 1541 1542 1544 1545 1546 1548 1549 1551 1553 1555 1556 1558 1559 1560 1561 1562 1564 1565 1565 1565 1565 1566 1567 1568 1568 1569 1569 1570 1570 1570 1570 1570 1570 1571 1571 1571 1572 1572 1573 1573 1573 1574 1574 1575
1499 1498 1497 1497 1497 1496 1497 1497 1498 1498 1499 1500 1501 1502 1503 1505 1505 1506 1506 1507 1508 1509 1512 1513 1515 1516 1518 1519 1520 1521 1523 1524 1525 1526 1528 1530 1532 1535 1537 1538 1540 1541 1542 1543 1545 1546 1547 1549 1550 1552 1554 1555 1557 1558 1559 1560 1561 1562 1563 1564 1565 1565 1565 1566 1567 1567 1568 1568 1568 1568 1568 1568 1568 1568 1568 1568 1568 1569 1569 1570 1571 1571 1572 1572 1573
1503 1502 1499 1499 1498 1498 1499 1499 1500 1500 1501 1501 1503 1504 1505 1507 1507 1508 1508 1509 1510 1511 1513 1514 1515 1516 1517 1519 1520 1521 1523 1524 1525 1527 1528 1531 1533 1535 1537 1538 1539 1541 1542 1543 1545 1546 1547 1548 1550 1552 1553 1554 1556 1557 1558 1559 1560 1561 1562 1563 1564 1564 1564 1565 1565 1566 1566 1566 1566 1566 1566 1566 1566 1566 1566 1566 1566 1566 1567 1567 1568 1569 1570 1570 1571
1505 1504 1502 1501 1501 1500 1500 1501 1502 1502 1503 1504 1505 1506 1507 1508 1509 1510 1510 1511 1511 1512 1514 1515 1516 1517 1518 1519 1520 1522 1523 1524 1525 1527 1528 1531 1533 1534 1536 1537 1538 1540 1542 1543 1544 1545 1546 1548 1549 1551 1552 1553 1555 1555 1556 1557 1558 1559 1560 1561 1562 1562 1563 1563 1563 1563 1564 1564 1564 1564 1564 1564 1564 1564 1564 1563 1563 1563 1564 1565 1566 1566 1567 1568 1569
1508 1508 1506 1505 1504 1502 1502 1504 1504 1505 1505 1506 1507 1508 1509 1510 1510 1511 1512 1512 1513 1514 1515 1516 1518 1518 1519 1520 1521 1522 1523 1524 1526 1527 1529 1530 1532 1533 1534 1536 1537 1539 1540 1542 1543 1544 1545 1547 1548 1549 1550 1552 1553 1554 1555 1556 1556 1557 1558 1559 1559 1560 1560 1561 1561 1561 1561 1561 1562 1562 1562 1562 1562 1562 1561 1561 1561 1561 1561 1562 1563 1564 1565 1565 1566
1512 1513 1511 1509 1507 1506 1506 1507 1508 1508 1508 1508 1509 1510 1511 1511 1512 1512 1513 1514 1515 1516 1517 1518 1520 1521 1522 1522 1523 1524 1524 1526 1527 1528 1529 1530 1532 1533 1534 1535 1537 1538 1539 1541 1542 1543 1544 1545 1546 1547 1549 1550 1551 1552 1553 1554 1554 1555 1556 1556 1556 1557 1557 1558 1558 1558 1558 1559 1559 1559 1559 1560 1559 1559 1559 1559 1558 1558 1559 1560 1560 1561 1562 1563 1563
1515 1517 1515 1512 1511 1511 1511 1511 1511 1511 1511 1512 1513 1512 1512 1513 1514 1514 1515 1516 1516 1517 1519 1520 1521 1522 1523 1524 1525 1525 1526 1527 1528 1529 1530 1531 1532 1533 1534 1535 1536 1537 1539 1540 1541 1542 1543 1543 1545 1546 1547 1548 1549 1550 1551 1551 1552 1552 1553 1553 1553 1554 1554 1555 1555 1555 1555 1556 1556 1556 1557 1557 1557 1556 1556 1556 1556 1556 1556 1557 1558 1559 1559 1560 1561
1517 1519 1519 1517 1515 1515 1516 1515 1514 1514 1515 1517 1516 1515 1515 1516 1516 1516 1517 1517 1518 1519 1521 1522 1523 1524 1525 1525 1526 1527 1527 1528 1528 1529 1530 1530 1531 1532 1533 1534 1535 1536 1537 1538 1539 1540 1541 1542 1543 1544 1545 1546 1546 1547 1548 1548 1549 1550 1550 1551 1551 1551 1551 1551 1551 1552 1552 1552 1553 1554 1554 1554 1553 1553 1553 1553 1554 1554 1554 1554 1555 1556 1556 1557 1558
1519 1520 1521 1520 1519 1519 1518 1518 1516 1516 1518 1520 1520 1519 1518 1519 1519 1519 1519 1519 1520 1522 1523 1524 1525 1525 1526 1526 1527 1527 1527 1528 1528 1529 1530 1530 1531 1531 1532 1533 1534 1535 1536 1537 1537 1538 1539 1540 1541 1542 1542 1543 1544 1544 1545 1546 1546 1547 1547 1548 1548 1548 1548 1548 1548 1548 1549 1549 1550 1550 1551 1551 1550 1550 1550 1550 1551 1551 1552 1552 1552 1553 1554 1554 1555
1521 1521 1521 1521 1521 1520 1520 1519 1518 1519 1520 1522 1523 1522 1521 1521 1522 1521 1521 1521 1523 1524 1525 1526 1527 1527 1527 1527 1528 1528 1528 1528 1529 1529 1530 1530 1531 1531 1532 1532 1533 1534 1534 1535 1536 1536 1537 1538 1539 1539 1539 1540 1541 1541 1542 1543 1543 1544 1544 1544 1544 1544 1544 1545 1545 1545 1545 1546 1546 1547 1547 1547 1547 1547 1547 1548 1548 1549 1550 1550 1550 1551 1552 1553 1553
1522 1523 1523 1523 1523 1523 1522 1521 1521 1522 1522 1523 1524 1524 1523 1524 1524 1523 1523 1524 1525 1526 1527 1528 1528 1528 1528 1528 1529 1529 1529 1529 1530 1530 1531 1531 1531 1531 1532 1532 1533 1533 1534 1534 1535 1535 1535 1536 1537 1537 1537 1538 1539 1539 1540 1540 1541 1541 1541 1541 1541 1541 1541 1541 1541 1542 1542 1542 1542 1543 1544 1543 1543 1544 1544 1545 1546 1546 1547 1547 1548 1549 1550 1551 1552
1524 1525 1525 1525 1525 1525 1524 1524 1524 1524 1524 1525 1526 1525 1525 1525 1525 1524 1525 1526 1526 1527 1528 1528 1529 1529 1529 1529 1530 1530 1530 1530 1531 1531 1532 1532 1532 1532 1533 1533 1533 1534 1534 1534 1535 1535 1535 1536 1536 1536 1536 1537 1537 1537 1538 1538 1538 1538 1538 1538 1538 1538 1538 1538 1538 1539 1539 1539 1539 1540 1540 1540 1540 1541 1542 1543 1544 1544 1544 1544 1545 1547 1548 1549 1551
1526 1527 1527 1527 1526 1526 1526 1526 1526 1526 1526 1526 1527 1526 1526 1526 1526 1526 1526 1527 1527 1528 1528 1529 1529 1529 1530 1530 1530 1530 1531 1531 1531 1532 1532 1532 1532 1533 1533 1533 1534 1534 1534 1534 1535 1535 1535 1535 1535 1535 1535 1536 1536 1536 1536 1536 1536 1536 1536 1536 1536 1536 1536 1536 1536 1536 1536 1536 1536 1536 1537 1537 1537 1538 1539 1541 1542 1543 1542 1541 1543 1544 1546 1547 1549
1528 1528 1528 1528 1528 1528 1528 1527 1527 1527 1526 1527 1527 1527 1527 1527 1527 1527 1528 1528 1528 1528 1529 1529 1529 1529 1529 1530 1530 1530 1531 1531 1531 1532 1532 1532 1532 1532 1533 1533 1533 1533 1534 1534 1534 1534 1534 1534 1534 1534 1534 1534 1534 1535 1535 1535 1534 1534 1534 1533 1533 1533 1533 1534 1534 1534 1533 1533 1533 1533 1534 1534 1534 1535 1537 1539 1540 1541 1541 1541 1541 1542 1543 1545 1547
1529 1530 1530 1530 1530 1529 1529 1528 1528 1527 1527 1527 1527 1527 1528 1527 1528 1528 1528 1528 1528 1528 1529 1529 1529 1529 1529 1529 1529 1529 1529 1530 1530 1530 1531 1531 1531 1531 1531 1531 1532 1532 1532 1533 1533 1533 1533 1533 1533 1532 1532 1532 1533 1533 1533 1533 1533 1533 1532 1532 1531 1531 1531 1531 1531 1531 1530 1530 1531 1531 1531 1531 1532 1534 1536 1537 1537 1539 1540 1540 1540 1541 1542 1543 1545
1531 1531 1532 1531 1531 1531 1530 1529 1528 1528 1527 1528 1528 1528 1527 1527 1528 1528 1528 1528 1528 1528 1528 1528 1528 1528 1528 1528 1528 1528 1528 1528 1528 1528 1529 1529 1529 1529 1529 1530 1530 1530 1531 1531 1531 1531 1531 1531 1531 1531 1530 1530 1530 1530 1530 1530 1530 1530 1530 1530 1530 1529 1529 1529 1528 1528 1528 1528 1528 1529 1529 1530 1531 1532 1533 1534 1535 1537 1538 1538 1538 1539 1540 1542 1543
1532 1532 1532 1532 1531 1531 1530 1529 1529 1529 1528 1528 1528 1528 1527 1527 1527 1527 1527 1527 1527 1527 1527 1527 1526 1527 1527 1527 1527 1527 1527 1527 1527 1527 1527 1527 1527 1527 1527 1527 1528 1528 1528 1529 1529 1529 1529 1529 1529 1528 1528 1528 1528 1528 1527 1527 1527 1527 1527 1527 1527 1527 1527 1526 1526 1526 1526 1526 1526 1527 1527 1528 1528 1529 1531 1532 1533 1534 1535 1535 1536 1537 1539 1540 1541
1533 1533 1532 1532 1532 1531 1531 1530 1530 1530 1529 1529 1529 1528 1528 1528 1528 1527 1527 1527 1526 1526 1526 1526 1526 1526 1526 1526 1526 1526 1526 1526 1526 1526 1526 1526 1526 1526 1525 1525 1525 1526 1526 1526 1527 1527 1527 1527 1526 1526 1526 1526 1525 1525 1525 1524 1524 1524 1524 1524 1524 1524 1524 1524 1524 1524 1524 1524 1524 1525 1525 1526 1526 1527 1528 1530 1530 1531 1532 1533 1534 1535 1537 1538 1539
1533 1533 1533 1533 1532 1532 1531 1531 1530 1530 1530 1529 1529 1529 1529 1528 1528 1527 1527 1527 1526 1526 1526 1526 1526 1526 1526 1526 1525 1525 1525 1525 1525 1525 1524 1524 1524 1524 1524 1524 1524 1524 1524 1524 1524 1524 1524 1524 1524 1524 1523 1523 1523 1523 1522 1522 1522 1522 1522 1522 1521 1521 1521 1521 1522 1522 1522 1522 1522 1522 1522 1523 1523 1524 1526 1527 1528 1529 1530 1531 1532 1533 1535 1536 1537
1534 1533 1533 1533 1533 1532 1532 1531 1531 1530 1530 1530 1530 1529 1529 1528 1528 1527 1527 1526 1526 1526 1526 1526 1526 1526 1526 1525 1525 1525 1525 1524 1524 1524 1524 1523 1523 1523 1523 1523 1522 1522 1522 1522 1522 1522 1522 1522 1522 1522 1522 1521 1521 1521 1521 1520 1520 1521 1521 1520 1520 1519 1520 1520 1520 1520 1520 1519 1519 1519 1519 1520 1520 1521 1523 1525 1527 1528 1528 1529 1530 1532 1533 1535 1536
1534 1534 1534 1533 1533 1532 1532 1531 1531 1531 1530 1530 1530 1529 1529 1528 1528 1527 1527 1526 1526 1526 1526 1526 1526 1526 1525 1525 1525 1524 1524 1524 1523 1523 1523 1523 1522 1522 1521 1521 1521 1520 1520 1520 1520 1520 1520 1520 1520 1521 1521 1520 1520 1520 1520 1519 1519 1519 1519 1519 1518 1518 1518 1518 1518 1518 1518 1518 1518 1518 1518 1517 1518 1518 1520 1522 1524 1526 1528 1529 1529 1530 1532 1535 1536